Probability
0 0 0 0 0 0 0 0 0 0 0 0 0 0 0 0 0 0 0 0 0 0 0 0 0 0 0 0 0 0 0 0 0 0 0 0 0 0 0 0 0 0 0
0 0 0 0 0 0 0 0 0 0 0 0 0 0 0 0 0 0 0 0 0 0 0 0 0 0 0 0 0 0 0 0 0 0 0 0 0 0 0 0 0 0 0
0 0 0 0 0 0 0 0 0 0 0 0 0 0 0 0 0 0 0 0 0 0 0 0 0 0 0 0 0 0 0 0 0 0 0 0 0 0 0 0 0 0 0
0 0 0 0 0 0 0 0 0 0 0 0 0 0 0 1 0 0 0 0 0 0 0 0 0 0 0 0 0 0 0 0 0 0 0 0 0 0 0 0 0 0 0
0 0 0 0 0 0 0 0 0 0 0 0 0 0 0 0 0 0 0 0 0 0 0 0 0 0 0 0 0 0 0 0 0 0 0 0 0 0 0 0 0 0 0
0 0 0 0 0 0 0 0 0 0 0 0 0 0 0 0 0 0 0 0 0 0 0 0 0 0 0 0 0 0 0 0 0 0 0 0 0 0 0 0 0 0 0
0 0 0 0 0 0 0 0 0 0 0 0 0 0 0 0 0 0 0 0 0 0 0 0 0 0 0 0 0 0 0 0 0 0 0 0 0 0 0 0 0 0 0
0 0 0 0 0 0 0 0 0 0 0 0 0 0 0 0 0 0 0 0 0 0 0 0 0 0 0 0 0 0 0 0 0 0 0 0 0 0 0 0 0 0 0
0 0 0 0 0 0 0 0 0 0 0 0 0 0 0 0 0 0 0 0 0 0 0 0 0 0 0 0 0 0 0 0 0 0 0 0 0 0 0 0 0 0 0
0 0 0 0 0 0 0 0 0 0 0 0 0 0 0 0 0 0 0 0 0 0 0 0 0 0 0 0 0 0 0 0 0 0 0 0 0 0 0 0 0 0 0
0 0 0 0 0 0 0 0 0 0 0 0 0 0 0 0 0 0 0 0 0 0 0 0 0 0 0 0 0 0 0 0 0 0 0 0 0 0 0 0 0 0 0
0 0 0 0 0 0 0 0 0 0 0 0 0 0 0 0 0 0 0 0 0 0 0 0 0 0 0 0 0 0 0 0 0 0 0 0 0 0 0 0 0 0 0
0 0 0 0 0 0 0 0 0 0 0 0 0 0 0 0 0 0 0 0 0 0 0 0 0 0 0 0 0 0 0 0 0 0 0 0 0 0 0 0 0 0 0
0 0 0 0 0 0 0 0 0 0 0 0 0 0 0 0 0 0 0 0 0 0 0 0 0 0 0 0 0 0 0 0 0 0 0 0 0 0 0 0 0 0 0
0 0 0 0 0 0 0 0 0 0 0 0 0 0 0 0 0 0 0 0 0 0 0 0 0 0 0 0 0 0 0 0 0 0 0 0 0 0 0 0 0 0 0
0 0 0 0 0 0 0 0 0 0 0 0 0 0 0 0 0 0 0 0 0 0 0 0 0 0 0 0 0 0 0 0 0 0 0 0 0 0 0 0 0 0 0
0 0 0 0 0 0 0 0 0 0 0 0 0 0 0 0 0 0 0 0 0 0 0 0 0 0 0 0 0 0 0 0 0 0 0 0 0 0 0 0 0 0 0
0 0 0 0 0 0 0 0 0 0 0 0 0 0 0 0 0 0 0 0 0 0 0 0 0 0 0 0 0 0 0 0 0 0 0 0 0 0 0 0 0 0 0
0 0 0 0 0 0 0 0 0 0 0 0 0 0 0 0 0 0 0 0 0 0 0 0 0 0 0 0 0 0 0 0 0 0 0 0 0 0 0 0 0 0 0
0 0 0 0 0 0 0 0 0 0 0 0 0 0 0 0 0 0 0 0 0 0 0 0 0 0 0 0 0 0 0 0 0 0 0 0 0 0 0 0 0 0 0
0 0 0 0 0 0 0 0 0 0 0 0 0 0 0 0 0 0 0 0 0 0 0 0 0 0 0 0 0 0 0 0 0 0 0 0 0 0 0 0 0 0 0
0 0 0 0 0 0 0 0 0 0 0 0 0 0 0 0 0 0 0 0 0 0 0 0 0 0 0 0 0 0 0 0 0 0 0 0 0 0 0 0 0 0 0
0 0 0 0 0 0 0 0 0 0 0 0 0 0 0 0 0 0 0 0 0 0 0 0 0 0 0 0 0 0 0 0 0 0 0 0 0 0 0 0 0 0 0
0 0 0 0 0 0 0 0 0 0 0 0 0 0 0 0 0 0 0 0 0 0 0 0 0 0 0 0 0 0 0 0 0 0 0 0 0 0 0 0 0 0 0
0 0 0 0 0 0 0 0 0 0 0 0 0 0 0 0 0 0 0 0 0 0 0 0 0 0 0 0 0 0 0 0 0 0 0 0 0 0 0 0 0 0 0
0 0 0 0 0 0 0 0 0 0 0 0 0 0 0 0 0 0 0 0 0 0 0 0 0 0 0 0 0 0 0 0 0 0 0 0 0 0 0 0 0 0 0
Wind_Speed
2 3 3 4 5 6 6 4 4 2 2 1 1 2 3 3 3 4 6 6 6 6 6 6 6 6 7 8 8 6 6 6 3 3 2 3 3 5 5 5 6 8 8
4 4 4 5 6 5 5 5 4 3 2 1 1 1 2 3 3 3 4 5 6 7 6 7 6 6 6 8 8 7 5 5 5 5 3 3 4 5 6 5 7 8 7
8 6 5 5 5 6 5 4 4 4 3 2 1 1 1 1 1 2 2 4 5 6 7 7 7 7 7 7 8 8 9 7 6 5 5 5 7 4 3 6 7 7 7
7 7 6 5 5 4 4 5 5 5 4 4 3 2 0 1 2 2 3 4 4 5 6 7 8 8 7 8 8 9 8 8 6 5 5 4 4 4 3 3 4 6 8
8 8 7 6 5 4 4 5 5 6 5 5 4 3 2 1 2 2 3 4 4 4 5 6 6 7 7 8 8 8 9 8 8 6 4 5 3 3 3 5 3 3 5
7 7 6 6 5 4 5 5 5 5 5 5 5 4 3 3 3 4 4 4 3 3 4 4 5 6 6 7 8 8 8 8 9 7 6 6 5 6 7 9 6 5 4
8 7 7 6 5 4 4 5 5 5 5 5 5 4 4 3 3 3 3 4 3 3 5 4 4 4 5 6 6 6 7 8 8 9 8 8 8 4 5 7 6 5 3
7 7 7 6 5 5 5 5 5 4 5 5 5 4 4 3 2 3 3 3 3 3 5 5 4 5 5 5 4 4 5 5 7 8 8 7 8 6 6 5 5 4 3
8 7 6 6 5 5 4 4 4 4 5 5 4 5 5 4 4 4 3 3 3 4 5 5 5 5 5 4 4 3 3 3 4 5 6 5 4 5 5 4 5 5 5
7 7 6 5 5 5 4 4 4 4 4 4 4 4 5 5 4 4 5 5 5 5 6 6 6 6 6 5 4 3 3 2 2 2 2 1 1 1 1 2 3 4 5
8 7 6 5 5 5 4 4 4 4 4 4 4 4 5 5 5 5 5 5 6 6 6 6 6 7 7 7 6 5 5 5 4 4 3 3 3 2 1 1 0 1 2
7 7 6 6 5 4 4 4 3 3 3 3 4 4 4 5 6 6 6 6 6 6 6 7 7 8 8 8 7 7 7 7 6 6 5 5 4 4 3 2 2 1 1
7 6 5 5 4 4 3 3 3 3 3 3 4 4 5 5 5 6 6 6 6 6 7 8 8 8 8 8 8 8 8 8 7 7 6 5 5 4 3 3 3 2 2
8 7 6 5 4 4 3 3 3 2 3 4 4 5 5 5 5 5 6 6 6 7 8 8 8 8 8 8 8 8 8 8 8 8 7 6 5 4 4 4 4 3 3
7 7 7 5 5 4 3 3 3 3 3 4 4 4 4 5 5 5 6 6 7 8 7 8 8 8 7 8 8 8 8 8 8 9 8 8 9 8 5 4 4 3 3
8 8 7 7 6 5 4 3 3 2 3 4 4 4 4 5 5 5 6 7 7 7 8 8 8 9 8 13 14 10 8 8 8 8 7 8 9 11 11 11 9 7 4
9 9 8 7 6 5 5 4 4 3 4 4 4 4 4 5 5 6 6 6 7 7 8 8 8 8 10 15 14 14 8 7 7 6 6 6 7 9 6 9 11 10 11
9 9 8 7 6 5 5 5 4 4 4 4 3 3 4 5 5 5 6 6 6 6 6 6 6 6 8 13 13 12 7 6 6 5 5 5 5 4 5 5 6 5 5
8 8 8 7 6 6 6 6 5 4 4 4 3 3 4 4 4 5 5 4 4 5 4 4 5 5 6 10 11 9 4 4 5 4 4 4 4 7 9 5 4 5 4
8 8 8 6 7 6 7 7 6 5 4 4 3 3 4 4 4 4 3 3 3 3 3 3 3 3 4 7 9 7 3 3 3 3 4 6 5 7 7 3 2 3 3
8 9 8 7 7 7 7 7 6 5 4 4 4 4 4 4 4 3 2 3 2 2 1 1 1 2 3 5 6 6 2 1 2 2 2 3 7 7 7 4 1 4 2
7 8 8 7 6 7 8 7 6 5 5 5 4 4 4 3 3 3 2 2 2 2 1 0 1 2 3 3 4 5 4 3 1 1 2 4 8 7 7 5 5 6 4
8 8 7 7 6 7 8 8 7 6 6 6 5 4 4 3 3 4 3 2 2 2 1 1 1 1 1 3 5 5 6 5 1 2 6 7 8 7 4 6 7 4 2
8 8 8 8 8 8 8 7 7 7 7 6 5 5 4 3 3 3 3 3 3 2 2 2 2 1 1 2 2 2 2 4 3 3 5 7 7 5 4 4 3 2 2
8 9 10 10 9 8 8 8 8 9 7 6 6 5 5 4 4 3 3 3 3 4 4 3 2 2 2 4 4 2 2 2 3 2 0 1 2 2 2 2 2 2 2
8 9 10 10 9 9 9 9 9 10 9 7 6 5 4 4 4 3 2 4 4 4 5 6 5 3 4 5 6 7 7 8 8 3 1 2 2 3 3 3 3 2 3
Wind_Direction
143 95 87 93 90 75 77 76 76 52 70 116 178 209 229 237 238 235 234 227 223 217 213 222 220 215 221 224 216 211 211 217 180 179 241 272 245 235 228 215 212 214 211
135 101 82 76 81 80 72 66 59 49 53 114 191 209 229 242 243 249 249 241 235 230 225 223 225 220 223 227 222 213 213 211 181 176 182 262 287 254 228 211 216 217 209
158 140 115 97 86 76 67 60 45 38 32 19 51 21 26 348 323 283 270 263 255 246 238 235 232 228 222 227 225 216 215 221 207 191 173 190 228 252 265 229 222 212 208
153 146 136 118 102 88 70 56 42 40 30 31 46 53 46 264 265 273 276 287 277 265 255 248 242 239 233 230 229 222 218 216 214 212 221 211 181 190 255 265 234 217 213
156 152 146 132 113 93 72 53 47 40 30 34 40 44 14 291 293 301 302 300 296 287 276 264 255 250 244 240 236 229 222 218 218 204 197 216 224 211 213 254 251 238 224
156 144 130 120 104 83 65 54 52 38 25 28 29 33 11 342 337 332 324 314 305 301 300 291 275 263 256 250 245 239 232 228 227 219 201 193 195 202 208 232 235 233 232
152 142 135 127 114 89 69 59 56 39 23 22 18 11 360 349 333 321 316 316 314 311 309 306 293 281 270 264 257 249 245 237 232 228 223 221 226 211 208 225 234 233 233
153 148 143 134 122 102 82 70 62 44 25 20 9 7 4 357 339 329 321 318 311 305 311 313 307 300 294 287 276 263 257 249 244 240 235 231 231 224 215 213 211 229 240
153 146 139 132 124 108 92 84 73 51 26 13 9 17 11 7 356 348 350 343 337 332 340 341 341 338 332 323 309 291 282 268 258 256 249 243 241 232 229 219 205 211 229
146 143 139 132 120 110 97 80 71 58 30 20 19 25 10 5 2 7 6 359 354 358 1 5 4 2 0 355 353 348 340 342 339 327 311 292 310 284 250 237 229 219 229
156 152 142 131 119 107 96 82 66 51 32 25 27 24 13 10 15 21 16 13 14 15 16 15 19 20 17 14 19 22 20 28 25 22 35 36 33 29 22 17 263 232 211
155 149 141 131 122 112 102 87 66 49 35 35 38 30 23 24 28 25 20 23 26 25 27 29 33 31 28 24 28 32 34 38 39 35 44 41 43 45 33 36 34 28 48
149 143 141 139 135 125 111 93 70 49 43 49 47 37 30 30 30 28 27 30 34 34 36 38 39 34 31 30 32 39 42 42 42 41 43 36 42 43 35 41 42 32 35
159 155 153 150 143 132 117 101 78 58 60 60 55 47 36 35 38 37 38 39 41 43 40 41 41 40 39 37 36 42 48 48 45 44 44 39 39 44 43 44 42 41 45
171 169 164 161 152 141 128 116 97 74 72 70 62 54 47 47 48 47 46 46 47 48 44 45 42 39 43 44 46 46 51 50 49 45 41 40 46 53 59 63 53 49 50
182 173 166 164 161 156 145 129 114 98 89 82 71 62 60 58 56 56 55 55 53 51 51 49 46 45 48 53 57 60 52 49 47 43 36 34 36 43 50 59 60 58 57
180 174 170 166 163 160 148 140 131 114 100 92 83 75 73 68 62 63 61 57 54 53 53 48 46 47 51 56 59 63 61 55 48 43 38 38 35 39 35 41 43 42 45
174 169 161 157 156 150 141 134 128 118 109 102 95 91 88 82 76 71 67 61 59 57 55 49 42 40 51 60 64 67 57 52 44 41 40 37 18 26 47 41 35 28 21
162 158 156 153 152 150 145 137 130 126 125 121 116 105 99 97 91 85 77 70 72 66 56 49 43 38 35 57 65 66 48 46 30 21 25 29 7 20 41 44 29 19 5
142 145 145 144 153 156 148 144 145 149 151 142 128 117 115 115 112 107 98 88 88 85 75 55 36 29 14 46 61 67 54 42 19 8 4 6 10 12 26 55 35 3 332
143 147 151 157 164 158 153 154 158 167 158 142 135 131 131 133 132 127 123 123 118 109 92 64 6 356 2 18 41 58 82 58 28 12 349 331 347 352 350 5 344 300 322
150 156 160 166 165 162 160 165 175 170 156 150 149 151 156 158 150 147 147 149 151 148 162 152 327 331 334 343 360 21 32 67 76 337 302 300 326 337 341 345 315 328 10
167 166 168 170 173 174 173 179 182 168 161 161 167 167 166 169 165 169 174 175 179 183 202 205 231 289 321 338 1 6 0 5 24 293 314 322 329 337 339 325 333 2 12
178 174 173 182 189 188 187 186 175 171 168 175 178 175 171 171 171 177 177 175 181 188 199 207 221 252 283 289 292 310 325 334 326 311 322 338 345 353 341 337 351 351 301
185 183 189 196 197 191 193 187 177 173 177 183 184 181 179 171 172 178 188 184 201 194 192 202 205 208 247 263 281 279 252 258 263 283 290 335 333 334 326 318 310 306 313
188 191 197 201 199 194 197 191 183 179 179 184 187 183 177 175 174 174 195 226 212 213 200 197 200 230 253 285 305 310 311 314 317 339 318 298 298 296 298 301 300 294 288